[[{"header":{"parameterUnit":"m.s-1","parameterCategory":1,"la1":30.2991,"la2":30.254,"lo1":-89.0895,"lo2":-89.0444,"dy":0.0017,"dx":0.0017,"nx":28,"ny":28,"refTime":"2024-07-25T21:00:00:Z","depth":0,"parameterNumber":2,"parameterNumberName":"U-component_of_WINDS"},"data":[0,0,0,0,0,0,0,0,0,0,0,0,0,0,0,0,0,0,0,0,0,0,0,0,0,0,0,0,0,0,0,0,0,0,0,0,0,0,0,0,0,0,0,0,0,0,0,0,0,0,0,0,0,0,0,0,0,0,-0.9501,-0.9501,0,-0.9464,-0.9463,-0.9463,-0.9434,-0.9434,-0.9433,-0.9433,-0.9393,-0.9392,-0.9392,0,0,0,0,0,0,0,0,0,0,0,0,0,-0.9548,-0.9547,-0.9501,-0.9501,-0.95,-0.9464,-0.9463,-0.9463,-0.9434,-0.9434,-0.9433,-0.9433,-0.9393,-0.9392,-0.9391,0,0,0,0,0,0,0,0,0,0,0,0,0,-0.9521,-0.9547,-0.9501,-0.9482,-0.948,-0.9464,-0.9463,-0.9463,-0.9434,-0.9434,-0.9433,-0.9433,-0.9394,-0.9393,-0.9391,-0.9392,0,0,-0.9388,-0.9387,0,0,0,0,0,0,0,0,-0.9523,-0.9519,-0.9485,-0.9483,-0.9481,-0.9453,-0.9465,-0.9439,-0.9434,-0.9451,-0.9433,-0.9433,-0.9413,-0.941,-0.9404,-0.939,-0.9388,-0.9387,-0.9387,-0.9386,-0.9386,0,0,0,0,0,0,0,-0.9524,-0.9521,-0.9486,-0.9485,-0.9482,-0.9475,-0.947,-0.946,-0.9435,-0.945,-0.9448,-0.9444,-0.9412,-0.9405,-0.9403,-0.9387,-0.9387,-0.9386,-0.9386,-0.9385,-0.9373,-0.9373,0,0,0,0,0,0,-0.9529,-0.9522,-0.9487,-0.9485,-0.9501,-0.9474,-0.9469,-0.9462,-0.9435,-0.943,-0.9444,-0.9442,-0.9408,-0.9405,-0.9402,-0.9401,-0.9386,-0.9385,-0.9384,-0.9373,-0.9373,-0.9373,0,0,0,0,0,0,-0.9531,-0.9527,-0.9489,-0.9503,-0.9498,-0.9474,-0.9466,-0.9462,-0.9455,-0.9431,-0.9426,-0.9442,-0.9407,-0.9403,-0.9395,-0.9399,-0.9384,-0.9383,-0.9372,-0.9373,-0.9373,-0.9399,0,0,0,0,0,0,-0.9532,-0.9527,-0.9527,-0.9503,-0.9497,-0.9483,-0.9466,-0.9461,-0.9453,-0.9451,-0.9427,-0.9423,-0.9407,-0.9397,-0.9394,-0.9397,-0.9382,-0.9371,-0.9372,-0.9373,-0.9398,-0.94,-0.9403,0,0,0,0,0,-0.9534,-0.9535,-0.9527,-0.9523,-0.9496,-0.9483,-0.948,-0.9461,-0.9454,-0.9453,-0.9438,-0.9424,-0.9399,-0.9396,-0.9392,-0.9395,-0.9371,-0.9372,-0.9373,-0.9396,-0.94,-0.9403,0,0,0,0,0,0,-0.9558,-0.9531,-0.9522,-0.9516,-0.9502,-0.9478,-0.9477,-0.9465,-0.9453,-0.9451,-0.9428,-0.9423,-0.9417,-0.9405,-0.9402,-0.9395,-0.9384,-0.9384,-0.9403,-0.9406,-0.9408,-0.9411,-0.9381,0,0,0,0,0,-0.9564,-0.9555,-0.9532,-0.9529,-0.9522,-0.9501,-0.9495,-0.9482,-0.9466,-0.946,-0.9444,-0.9429,-0.9418,-0.9412,-0.94,-0.9396,-0.9391,-0.9397,-0.9399,-0.9402,-0.9402,-0.94,-0.9402,-0.9377,-0.9377,-0.9376,0,0,-0.9573,-0.9557,-0.9553,-0.9533,-0.9521,-0.9513,-0.9496,-0.9488,-0.9482,-0.9459,-0.945,-0.9438,-0.942,-0.9414,-0.9411,-0.9404,-0.9408,-0.9403,-0.9405,-0.9404,-0.9401,-0.9404,-0.9406,-0.9377,-0.9377,-0.9377,0,0,-0.9586,-0.9574,-0.957,-0.9559,-0.9541,-0.9527,-0.9527,-0.9505,-0.9496,-0.9487,-0.947,-0.9463,-0.9444,-0.9433,-0.9424,-0.9436,-0.9423,-0.9433,-0.9446,-0.9444,-0.9446,-0.9448,-0.9453,-0.9455,-0.9433,-0.9433,-0.9433,0,-0.96,-0.9588,-0.9569,-0.9563,-0.9555,-0.9535,-0.9531,-0.9521,-0.95,-0.9495,-0.9489,-0.9466,-0.9453,-0.9444,-0.9448,-0.9441,-0.944,-0.9435,-0.9448,-0.9449,-0.9451,-0.9455,-0.9456,-0.9435,-0.9435,-0.9434,-0.9434,0,-0.9606,-0.9598,-0.9597,-0.9579,-0.9571,-0.9565,-0.9547,-0.9541,-0.953,-0.9517,-0.9509,-0.9492,-0.9478,-0.9475,-0.9463,-0.9466,-0.9462,-0.9452,-0.944,-0.9455,-0.9458,-0.946,-0.9437,-0.9436,-0.9436,-0.9435,0,0,-0.9632,-0.9605,-0.9605,-0.9597,-0.9577,-0.957,-0.9565,-0.9552,-0.9547,-0.9534,-0.9529,-0.9515,-0.9507,-0.9497,-0.9484,-0.9483,-0.9494,-0.9473,-0.9472,-0.9478,-0.9497,-0.9504,-0.9506,-0.9486,-0.9486,-0.9486,-0.9498,0,-0.9642,-0.9632,-0.9616,-0.961,-0.9603,-0.9585,-0.958,-0.9568,-0.9556,-0.9548,-0.9535,-0.9526,-0.9515,-0.9509,-0.9507,-0.9493,-0.9498,-0.9492,-0.9481,-0.9481,-0.9486,-0.9508,-0.9516,-0.9527,-0.9499,-0.95,-0.95,0,-0.9652,-0.9641,-0.9635,-0.9618,-0.9614,-0.961,-0.9597,-0.959,-0.9576,-0.9568,-0.9559,-0.9545,-0.9539,-0.9529,-0.952,-0.9517,-0.9512,-0.9504,-0.9504,-0.9502,-0.9491,-0.9506,-0.9531,-0.9533,-0.9502,-0.9501,-0.9501,0,-0.9672,-0.9656,-0.9651,-0.9645,-0.9623,-0.9621,-0.9612,-0.9598,-0.9591,-0.958,-0.9576,-0.9564,-0.9558,-0.9549,-0.9533,-0.9527,-0.9527,-0.9515,-0.952,-0.952,-0.952,-0.952,-0.9544,-0.9517,-0.9517,-0.9517,-0.9517,0,-0.9685,-0.9682,-0.966,-0.9656,-0.9653,-0.9636,-0.9633,-0.9622,-0.961,-0.9604,-0.9588,-0.9583,-0.9563,-0.9556,-0.9543,-0.9539,-0.9536,-0.9529,-0.9525,-0.953,-0.9531,-0.9526,-0.9524,-0.9518,-0.9517,-0.9517,-0.9517,0,-0.9706,-0.9691,-0.9684,-0.9665,-0.9661,-0.9659,-0.9643,-0.9639,-0.9628,-0.9621,-0.9619,-0.96,-0.9591,-0.9575,-0.9561,-0.9553,-0.9551,-0.9545,-0.9556,-0.9554,-0.9559,-0.9559,-0.958,-0.9582,-0.9555,-0.9555,-0.9555,0,-0.9715,-0.9713,-0.9694,-0.969,-0.9682,-0.9675,-0.9668,-0.9652,-0.9646,-0.9631,-0.9629,-0.9619,-0.961,-0.9597,-0.9582,-0.9572,-0.9566,-0.9574,-0.9564,-0.9569,-0.9566,-0.9567,-0.9566,-0.9576,-0.9576,-0.9577,-0.9577,0,-0.9733,-0.9726,-0.9718,-0.9707,-0.9701,-0.9692,-0.9682,-0.9679,-0.966,-0.9654,-0.9646,-0.9639,-0.9626,-0.9616,-0.9604,-0.9595,-0.9583,-0.9581,-0.9581,-0.9586,-0.9592,-0.9589,-0.9562,-0.958,-0.958,-0.9579,-0.9579,-0.9579,-0.9748,-0.9746,-0.9733,-0.9725,-0.9716,-0.9707,-0.9703,-0.9692,-0.9684,-0.9673,-0.9663,-0.9656,-0.9643,-0.9626,-0.9618,-0.9611,-0.9606,-0.9606,-0.9607,-0.9607,-0.9609,-0.9594,-0.9609,-0.9609,-0.9609,-0.9609,-0.9609,0,-0.9765,-0.9757,-0.9749,-0.9737,-0.973,-0.9721,-0.971,-0.9705,-0.9699,-0.9688,-0.968,-0.9671,-0.9662,-0.9648,-0.9638,-0.9636,-0.963,-0.9634,-0.9634,-0.9632,-0.9615,-0.9615,-0.9639,-0.9639,-0.9639,-0.9639,-0.9639,-0.9639,-0.9774,-0.9769,-0.9761,-0.9752,-0.9744,-0.9736,-0.9731,-0.9723,-0.9715,-0.9705,-0.9698,-0.9689,-0.9677,-0.9667,-0.9659,-0.9655,-0.9652,-0.9657,-0.9652,-0.9636,-0.9633,-0.963,-0.9631,-0.9657,-0.9657,-0.9669,-0.967,-0.967]},{"header":{"parameterUnit":"m.s-1","parameterCategory":1,"la1":30.2991,"la2":30.254,"lo1":-89.0895,"lo2":-89.0444,"dy":0.0017,"dx":0.0017,"nx":28,"ny":28,"refTime":"2024-07-25T21:00:00:Z","depth":0,"parameterNumber":3,"parameterNumberName":"V-component_of_WINDS"},"data":[0,0,0,0,0,0,0,0,0,0,0,0,0,0,0,0,0,0,0,0,0,0,0,0,0,0,0,0,0,0,0,0,0,0,0,0,0,0,0,0,0,0,0,0,0,0,0,0,0,0,0,0,0,0,0,0,0,0,4.3498,4.3497,0,4.346,4.346,4.3459,4.3449,4.3449,4.3449,4.3449,4.3406,4.3405,4.3403,0,0,0,0,0,0,0,0,0,0,0,0,0,4.3557,4.3556,4.3498,4.3497,4.3497,4.346,4.346,4.3459,4.3449,4.3449,4.3449,4.3449,4.3406,4.3405,4.3403,0,0,0,0,0,0,0,0,0,0,0,0,0,4.3527,4.3556,4.3498,4.3487,4.3486,4.346,4.346,4.3459,4.3449,4.3449,4.3449,4.345,4.3407,4.3405,4.3403,4.3383,0,0,4.3397,4.3396,0,0,0,0,0,0,0,0,4.3528,4.3524,4.3489,4.3488,4.3487,4.346,4.3465,4.3433,4.3448,4.3463,4.3449,4.345,4.3423,4.342,4.3412,4.3381,4.3379,4.3396,4.3395,4.3394,4.3394,0,0,0,0,0,0,0,4.3531,4.3526,4.3483,4.3489,4.3487,4.3483,4.3479,4.3459,4.3441,4.3461,4.3461,4.3457,4.3422,4.3414,4.3411,4.3379,4.3396,4.3395,4.3393,4.3393,4.3331,4.3331,0,0,0,0,0,0,4.3535,4.3528,4.3484,4.3482,4.3509,4.3482,4.3478,4.3468,4.3442,4.3438,4.3456,4.3456,4.3417,4.3413,4.3409,4.3385,4.3394,4.3392,4.3391,4.3332,4.3331,4.3331,0,0,0,0,0,0,4.3536,4.3531,4.3485,4.3505,4.3498,4.3481,4.347,4.3467,4.3458,4.3438,4.3434,4.3451,4.3417,4.3412,4.339,4.3383,4.3391,4.339,4.3332,4.3331,4.3331,4.3337,0,0,0,0,0,0,4.3538,4.3532,4.3525,4.3505,4.3498,4.3468,4.3469,4.3466,4.3455,4.3455,4.3432,4.3428,4.3417,4.3394,4.3388,4.3381,4.3388,4.3333,4.3332,4.3331,4.3337,4.3336,4.3336,0,0,0,0,0,4.354,4.3527,4.3525,4.3519,4.3489,4.3468,4.3464,4.3453,4.3455,4.3447,4.3434,4.3429,4.3385,4.3391,4.3385,4.3377,4.3333,4.3332,4.3331,4.3337,4.3336,4.3336,0,0,0,0,0,0,4.3545,4.3524,4.3521,4.3501,4.3487,4.3466,4.3456,4.3452,4.3436,4.3436,4.3421,4.3416,4.3395,4.3384,4.3391,4.3357,4.3359,4.3357,4.3365,4.3365,4.3364,4.3367,4.3386,0,0,0,0,0,4.3544,4.353,4.3512,4.3496,4.3489,4.3474,4.3465,4.3458,4.3441,4.3435,4.342,4.3403,4.3386,4.3375,4.3357,4.3336,4.333,4.3327,4.3326,4.3326,4.3324,4.3312,4.331,4.3328,4.3328,4.3328,0,0,4.3541,4.3528,4.352,4.3496,4.3485,4.347,4.3469,4.3453,4.3441,4.3432,4.3411,4.34,4.338,4.3359,4.3348,4.3348,4.3318,4.3325,4.3325,4.3323,4.3311,4.3309,4.3308,4.3327,4.3327,4.3327,0,0,4.3528,4.3517,4.3503,4.3491,4.3474,4.3465,4.3461,4.3442,4.3435,4.3414,4.3407,4.3392,4.3363,4.3349,4.3339,4.3323,4.3317,4.3317,4.3314,4.3302,4.3301,4.33,4.3294,4.3292,4.3316,4.3316,4.3316,0,4.3526,4.3505,4.3495,4.348,4.347,4.3463,4.3448,4.3437,4.3414,4.3407,4.3408,4.3372,4.3358,4.3333,4.333,4.3321,4.3316,4.3319,4.3302,4.3301,4.3299,4.3294,4.3292,4.3316,4.3316,4.3316,4.3316,0,4.3503,4.3489,4.3479,4.346,4.3448,4.3433,4.3421,4.3411,4.3405,4.3395,4.3374,4.3358,4.3338,4.3331,4.3325,4.3306,4.3307,4.3305,4.3306,4.3298,4.3293,4.329,4.3316,4.3316,4.3316,4.3316,0,0,4.3491,4.3468,4.3465,4.3456,4.3437,4.3425,4.341,4.3392,4.3383,4.3368,4.3354,4.333,4.3329,4.3317,4.3309,4.3299,4.3288,4.3299,4.3298,4.3297,4.3267,4.3268,4.3266,4.3285,4.3284,4.3284,4.3268,0,4.3476,4.345,4.3442,4.3419,4.3406,4.3399,4.3386,4.3372,4.3363,4.3349,4.3338,4.3322,4.3321,4.3314,4.3304,4.3291,4.3281,4.3292,4.3271,4.327,4.3276,4.3263,4.3264,4.325,4.3266,4.3266,4.3265,0,4.3454,4.3441,4.3418,4.3402,4.3396,4.3384,4.3368,4.3355,4.3339,4.3333,4.3321,4.3314,4.3297,4.33,4.3276,4.3284,4.3275,4.3267,4.3266,4.3263,4.3267,4.3259,4.3245,4.3243,4.3262,4.3262,4.3262,0,4.3448,4.3424,4.3407,4.34,4.3381,4.3373,4.3364,4.335,4.334,4.3325,4.3318,4.3301,4.3291,4.3278,4.3266,4.3269,4.3243,4.3245,4.3237,4.3237,4.3231,4.3232,4.3215,4.3226,4.3226,4.3226,4.3226,0,4.3431,4.3417,4.3405,4.3394,4.3379,4.3369,4.3353,4.3344,4.3331,4.3318,4.3311,4.3299,4.3285,4.3271,4.3261,4.3243,4.3239,4.3233,4.323,4.3233,4.3234,4.3227,4.3227,4.3225,4.3225,4.3226,4.3226,0,4.3421,4.3412,4.3394,4.3378,4.3374,4.3363,4.3349,4.3338,4.3329,4.3313,4.3309,4.3294,4.3277,4.3265,4.3242,4.3236,4.3217,4.3214,4.3222,4.3221,4.3214,4.3215,4.3192,4.3188,4.3201,4.3201,4.3201,0,4.3411,4.3401,4.3385,4.3377,4.3369,4.3355,4.3346,4.3336,4.3326,4.3309,4.33,4.3283,4.3269,4.3242,4.3229,4.3212,4.3209,4.3202,4.3206,4.321,4.3209,4.3209,4.3208,4.3201,4.3201,4.3201,4.3201,0,4.3394,4.3391,4.3378,4.3365,4.3354,4.3342,4.333,4.3324,4.3312,4.3301,4.3285,4.3274,4.3252,4.3235,4.3217,4.3207,4.3202,4.32,4.3197,4.32,4.3205,4.3203,4.3221,4.32,4.32,4.3201,4.3201,4.3201,4.3384,4.3375,4.3363,4.3349,4.334,4.3329,4.3319,4.3309,4.3296,4.3279,4.3274,4.3257,4.3242,4.3218,4.3208,4.3193,4.3193,4.3189,4.3188,4.3187,4.3188,4.3208,4.319,4.319,4.319,4.319,4.319,0,4.3367,4.3359,4.3347,4.3332,4.3321,4.3319,4.3306,4.3297,4.3283,4.327,4.3257,4.3239,4.3223,4.3209,4.3192,4.3184,4.3181,4.318,4.318,4.3178,4.3189,4.3193,4.3182,4.3182,4.3182,4.3182,4.3182,4.3182,4.3357,4.3342,4.3337,4.3317,4.3309,4.3294,4.3286,4.3276,4.3266,4.3247,4.3234,4.3226,4.3213,4.3195,4.318,4.3177,4.3171,4.317,4.3166,4.3176,4.3177,4.3178,4.3182,4.3169,4.3169,4.3156,4.3156,4.3156]}]]